Location: NCO
(38.4404°N, 77.1340°W)
Time: 12:31:56
(UTC-04:00)

Envisat - Visible Passes

Search period start: 20 July 2017 00:00
Search period end: 30 July 2017 00:00
Orbit: 764 x 766 km, 98.2° (Epoch: 19 July)

Date Brightness Start Highest point End Pass type
(mag) Time Alt. Az. Time Alt. Az. Time Alt. Az.
20 Jul 4.2 21:40:51 10° SSW 21:45:35 40° W 21:50:22 10° NNW visible
21 Jul 3.0 21:03:45 10° SSE 21:08:49 88° E 21:13:56 10° NNW visible
22 Jul 5.1 22:07:27 10° SW 22:11:22 22° W 22:15:19 10° NW visible
23 Jul 3.8 21:29:33 10° S 21:34:28 51° W 21:39:26 10° NNW visible
24 Jul 3.0 20:52:44 10° SSE 20:57:45 70° ENE 21:02:50 10° N visible
24 Jul 5.7 22:35:16 10° WSW 22:37:14 12° W 22:39:13 10° WNW visible
25 Jul 4.8 21:55:52 10° SSW 22:00:12 28° W 22:04:34 10° NW visible
26 Jul 3.4 21:18:19 10° S 21:23:22 66° WSW 21:28:26 10° NNW visible
27 Jul 5.5 22:23:00 10° SW 22:26:02 16° W 22:29:05 10° NW visible
28 Jul 4.4 21:44:24 10° SSW 21:49:03 36° W 21:53:44 10° NNW visible
29 Jul 3.1 21:07:12 10° SSE 21:12:16 84° WSW 21:17:23 10° NNW visible
